Time,TemperatureF,DewpointF,PressureIn,WindDirection,WindDirectionDegrees,WindSpeedMPH,WindSpeedGustMPH,Humidity,HourlyPrecipIn,Conditions,Clouds,dailyrainin,SoftwareType,DateUTC
2013-04-08 00:02:00,60.0,48.0,29.84,SW,226,6.0,8.0,64,0.00,,,0.00,,2013-04-08 05:02:00,
2013-04-08 00:12:00,60.0,48.0,29.84,SW,226,6.0,8.0,64,0.00,,,0.00,,2013-04-08 05:12:00,
2013-04-08 00:22:00,60.0,48.0,29.84,SW,226,6.0,8.0,64,0.00,,,0.00,,2013-04-08 05:22:00,
2013-04-08 00:32:00,60.0,49.0,29.85,SW,232,6.0,11.0,67,0.00,,,0.00,,2013-04-08 05:32:00,
2013-04-08 00:42:00,60.0,49.0,29.85,SW,232,3.0,11.0,66,0.00,,,0.00,,2013-04-08 05:42:00,
2013-04-08 00:52:00,60.0,49.0,29.85,SW,232,3.0,11.0,66,0.00,,,0.00,,2013-04-08 05:52:00,
2013-04-08 01:02:00,60.0,48.0,29.84,SW,226,6.0,10.0,65,0.00,,,0.00,,2013-04-08 06:02:00,
2013-04-08 01:12:00,60.0,49.0,29.84,SW,230,6.0,10.0,66,0.00,,,0.00,,2013-04-08 06:12:00,
2013-04-08 01:22:00,60.0,49.0,29.84,SW,230,6.0,10.0,66,0.00,,,0.00,,2013-04-08 06:22:00,
2013-04-08 01:32:00,60.0,49.0,29.84,SW,224,3.0,10.0,67,0.00,,,0.00,,2013-04-08 06:32:00,
2013-04-08 01:42:00,60.0,49.0,29.84,SW,224,3.0,10.0,67,0.00,,,0.00,,2013-04-08 06:42:00,
2013-04-08 01:52:00,61.0,50.0,29.83,SW,223,8.0,10.0,66,0.00,,,0.00,,2013-04-08 06:52:00,
2013-04-08 02:02:00,61.0,49.0,29.83,SW,230,6.0,9.0,64,0.00,,,0.00,,2013-04-08 07:02:00,
2013-04-08 02:12:00,61.0,49.0,29.83,SW,232,6.0,9.0,65,0.00,,,0.00,,2013-04-08 07:12:00,
2013-04-08 02:22:00,61.0,49.0,29.83,SW,232,6.0,9.0,65,0.00,,,0.00,,2013-04-08 07:22:00,
2013-04-08 02:33:00,61.0,49.0,29.83,SW,232,6.0,9.0,65,0.00,,,0.00,,2013-04-08 07:33:00,
2013-04-08 02:42:00,61.0,49.0,29.83,SW,232,6.0,9.0,65,0.00,,,0.00,,2013-04-08 07:42:00,
2013-04-08 02:52:00,61.0,49.0,29.82,WSW,237,6.0,10.0,65,0.00,,,0.00,,2013-04-08 07:52:00,
2013-04-08 03:02:00,61.0,49.0,29.82,SW,216,6.0,10.0,65,0.00,,,0.00,,2013-04-08 08:02:00,
2013-04-08 03:12:00,61.0,49.0,29.82,SW,216,6.0,10.0,65,0.00,,,0.00,,2013-04-08 08:12:00,
2013-04-08 03:22:00,61.0,49.0,29.82,SW,216,6.0,10.0,65,0.00,,,0.00,,2013-04-08 08:22:00,
2013-04-08 03:32:00,61.0,50.0,29.82,SSW,208,5.0,10.0,66,0.00,,,0.00,,2013-04-08 08:32:00,
2013-04-08 03:42:00,60.0,49.0,29.81,SSW,213,7.0,13.0,67,0.00,,,0.00,,2013-04-08 08:42:00,
2013-04-08 03:52:00,60.0,49.0,29.81,SSW,213,7.0,13.0,67,0.00,,,0.00,,2013-04-08 08:52:00,
2013-04-08 04:02:00,60.0,49.0,29.80,SW,224,10.0,11.0,67,0.00,,,0.00,,2013-04-08 09:02:00,
2013-04-08 04:12:00,61.0,50.0,29.80,SW,216,7.0,11.0,66,0.00,,,0.00,,2013-04-08 09:12:00,
2013-04-08 04:22:00,61.0,50.0,29.80,SW,216,7.0,11.0,66,0.00,,,0.00,,2013-04-08 09:22:00,
2013-04-08 04:33:00,61.0,50.0,29.80,SW,216,7.0,11.0,66,0.00,,,0.00,,2013-04-08 09:33:00,
2013-04-08 04:42:00,61.0,51.0,29.79,SW,229,10.0,17.0,69,0.00,,,0.00,,2013-04-08 09:42:00,
2013-04-08 04:53:00,61.0,51.0,29.79,SW,229,10.0,17.0,69,0.00,,,0.00,,2013-04-08 09:53:00,
2013-04-08 05:03:00,62.0,51.0,29.78,SW,220,13.0,18.0,68,0.00,,,0.00,,2013-04-08 10:03:00,
2013-04-08 05:13:00,62.0,51.0,29.78,WSW,237,14.0,18.0,68,0.00,,,0.00,,2013-04-08 10:13:00,
2013-04-08 05:23:00,62.0,51.0,29.78,WSW,237,14.0,18.0,68,0.00,,,0.00,,2013-04-08 10:23:00,
2013-04-08 05:33:00,62.0,51.0,29.78,SW,227,14.0,19.0,67,0.00,,,0.00,,2013-04-08 10:33:00,
2013-04-08 05:42:00,62.0,51.0,29.78,SW,227,14.0,19.0,67,0.00,,,0.00,,2013-04-08 10:42:00,
2013-04-08 05:52:00,62.0,52.0,29.78,SW,217,12.0,19.0,69,0.00,,,0.00,,2013-04-08 10:52:00,
2013-04-08 06:02:00,62.0,51.0,29.79,WSW,247,12.0,24.0,67,0.00,,,0.00,,2013-04-08 11:02:00,
2013-04-08 06:12:00,62.0,51.0,29.80,SW,236,8.0,24.0,67,0.00,,,0.00,,2013-04-08 11:12:00,
2013-04-08 06:22:00,62.0,51.0,29.80,SW,236,8.0,24.0,67,0.00,,,0.00,,2013-04-08 11:22:00,
2013-04-08 06:32:00,61.0,51.0,29.80,SW,229,11.0,20.0,70,0.00,,,0.00,,2013-04-08 11:32:00,
2013-04-08 06:42:00,61.0,51.0,29.80,SW,229,11.0,20.0,70,0.00,,,0.00,,2013-04-08 11:42:00,
2013-04-08 06:52:00,61.0,52.0,29.80,SW,229,12.0,20.0,73,0.00,,,0.00,,2013-04-08 11:52:00,
2013-04-08 07:03:00,61.0,52.0,29.82,SW,236,11.0,19.0,71,0.00,,,0.00,,2013-04-08 12:03:00,
2013-04-08 07:12:00,61.0,52.0,29.82,SW,236,11.0,19.0,71,0.00,,,0.00,,2013-04-08 12:12:00,
2013-04-08 07:22:00,61.0,52.0,29.82,SW,227,10.0,19.0,73,0.00,,,0.00,,2013-04-08 12:22:00,
2013-04-08 07:33:00,61.0,53.0,29.83,SW,233,6.0,18.0,75,0.00,,,0.00,,2013-04-08 12:33:00,
2013-04-08 07:42:00,61.0,53.0,29.83,SW,233,6.0,18.0,75,0.00,,,0.00,,2013-04-08 12:42:00,
2013-04-08 07:52:00,61.0,53.0,29.83,WSW,240,9.0,18.0,75,0.00,,,0.00,,2013-04-08 12:52:00,
2013-04-08 08:03:00,61.0,54.0,29.84,SW,234,8.0,14.0,77,0.00,,,0.00,,2013-04-08 13:03:00,
2013-04-08 08:12:00,61.0,54.0,29.84,SW,234,8.0,14.0,77,0.00,,,0.00,,2013-04-08 13:12:00,
2013-04-08 08:22:00,62.0,54.0,29.85,SW,236,9.0,14.0,76,0.00,,,0.00,,2013-04-08 13:22:00,
2013-04-08 08:32:00,62.0,55.0,29.85,WSW,257,5.0,14.0,77,0.00,,,0.00,,2013-04-08 13:32:00,
2013-04-08 08:42:00,62.0,55.0,29.85,WSW,257,5.0,14.0,77,0.00,,,0.00,,2013-04-08 13:42:00,
2013-04-08 08:52:00,63.0,55.0,29.85,WSW,251,12.0,14.0,76,0.00,,,0.00,,2013-04-08 13:52:00,
2013-04-08 09:02:00,63.0,55.0,29.85,WSW,251,12.0,14.0,76,0.00,,,0.00,,2013-04-08 14:02:00,
2013-04-08 09:12:00,64.0,55.0,29.85,WSW,246,12.0,19.0,72,0.00,,,0.00,,2013-04-08 14:12:00,
2013-04-08 09:22:00,64.0,55.0,29.85,WSW,246,12.0,19.0,72,0.00,,,0.00,,2013-04-08 14:22:00,
2013-04-08 09:32:00,64.0,56.0,29.85,SW,236,7.0,25.0,74,0.00,,,0.00,,2013-04-08 14:32:00,
2013-04-08 09:42:00,65.0,56.0,29.85,SW,232,12.0,25.0,73,0.00,,,0.00,,2013-04-08 14:42:00,
2013-04-08 09:52:00,65.0,56.0,29.85,SW,232,12.0,25.0,73,0.00,,,0.00,,2013-04-08 14:52:00,
2013-04-08 10:02:00,67.0,57.0,29.85,SW,233,13.0,25.0,70,0.00,,,0.00,,2013-04-08 15:02:00,
2013-04-08 10:12:00,67.0,55.0,29.85,WSW,244,12.0,25.0,66,0.00,,,0.00,,2013-04-08 15:12:00,
2013-04-08 10:22:00,67.0,55.0,29.85,WSW,244,12.0,25.0,66,0.00,,,0.00,,2013-04-08 15:22:00,
2013-04-08 10:33:00,67.0,56.0,29.86,SW,223,19.0,24.0,68,0.00,,,0.00,,2013-04-08 15:33:00,
2013-04-08 10:42:00,67.0,56.0,29.86,SW,223,19.0,24.0,68,0.00,,,0.00,,2013-04-08 15:42:00,
2013-04-08 10:52:00,67.0,56.0,29.86,WSW,241,7.0,24.0,67,0.00,,,0.00,,2013-04-08 15:52:00,
2013-04-08 11:03:00,68.0,57.0,29.86,WSW,250,20.0,25.0,67,0.00,,,0.00,,2013-04-08 16:03:00,
2013-04-08 11:13:00,68.0,57.0,29.86,WSW,250,20.0,25.0,67,0.00,,,0.00,,2013-04-08 16:13:00,
2013-04-08 11:22:00,68.0,57.0,29.86,WSW,250,20.0,25.0,67,0.00,,,0.00,,2013-04-08 16:22:00,
2013-04-08 11:32:00,68.0,57.0,29.86,WSW,250,20.0,25.0,67,0.00,,,0.00,,2013-04-08 16:32:00,
2013-04-08 11:42:00,68.0,55.0,29.85,WSW,239,5.0,26.0,64,0.00,,,0.00,,2013-04-08 16:42:00,
2013-04-08 11:53:00,68.0,55.0,29.86,WSW,237,14.0,26.0,64,0.00,,,0.00,,2013-04-08 16:53:00,
2013-04-08 12:03:00,68.0,54.0,29.86,SW,230,10.0,28.0,62,0.00,,,0.00,,2013-04-08 17:03:00,
2013-04-08 12:12:00,68.0,54.0,29.86,WSW,257,18.0,28.0,60,0.00,,,0.00,,2013-04-08 17:12:00,
2013-04-08 12:22:00,68.0,54.0,29.86,WSW,257,18.0,28.0,60,0.00,,,0.00,,2013-04-08 17:22:00,
2013-04-08 12:32:00,68.0,54.0,29.86,WSW,237,8.0,25.0,61,0.00,,,0.00,,2013-04-08 17:32:00,
2013-04-08 12:43:00,68.0,54.0,29.86,WSW,237,8.0,25.0,61,0.00,,,0.00,,2013-04-08 17:43:00,
2013-04-08 12:52:00,68.0,54.0,29.86,West,261,8.0,25.0,61,0.00,,,0.00,,2013-04-08 17:52:00,
2013-04-08 13:02:00,68.0,54.0,29.86,West,261,8.0,25.0,61,0.00,,,0.00,,2013-04-08 18:02:00,
2013-04-08 13:12:00,69.0,55.0,29.85,WSW,237,20.0,26.0,60,0.00,,,0.00,,2013-04-08 18:12:00,
2013-04-08 13:22:00,69.0,55.0,29.85,WSW,237,20.0,26.0,60,0.00,,,0.00,,2013-04-08 18:22:00,
2013-04-08 13:32:00,70.0,55.0,29.84,WSW,247,12.0,26.0,59,0.00,,,0.00,,2013-04-08 18:32:00,
2013-04-08 13:42:00,70.0,55.0,29.83,SW,229,17.0,26.0,58,0.00,,,0.00,,2013-04-08 18:42:00,
2013-04-08 13:52:00,70.0,55.0,29.83,SW,229,17.0,26.0,58,0.00,,,0.00,,2013-04-08 18:52:00,
2013-04-08 14:02:00,71.0,56.0,29.81,SSW,206,14.0,26.0,60,0.00,,,0.00,,2013-04-08 19:02:00,
2013-04-08 14:12:00,71.0,54.0,29.81,SW,215,17.0,26.0,56,0.00,,,0.00,,2013-04-08 19:12:00,
2013-04-08 14:22:00,71.0,54.0,29.81,SW,215,17.0,26.0,56,0.00,,,0.00,,2013-04-08 19:22:00,
2013-04-08 14:33:00,71.0,55.0,29.80,SSW,210,18.0,32.0,57,0.00,,,0.00,,2013-04-08 19:33:00,
2013-04-08 14:42:00,72.0,55.0,29.80,WSW,253,10.0,32.0,55,0.00,,,0.00,,2013-04-08 19:42:00,
2013-04-08 14:52:00,72.0,55.0,29.80,WSW,253,10.0,32.0,55,0.00,,,0.00,,2013-04-08 19:52:00,
2013-04-08 15:02:00,73.0,54.0,29.80,SW,222,25.0,27.0,52,0.00,,,0.00,,2013-04-08 20:02:00,
2013-04-08 15:12:00,73.0,54.0,29.80,SSW,212,16.0,27.0,52,0.00,,,0.00,,2013-04-08 20:12:00,
2013-04-08 15:22:00,73.0,54.0,29.80,SSW,212,16.0,27.0,52,0.00,,,0.00,,2013-04-08 20:22:00,
2013-04-08 15:33:00,73.0,55.0,29.79,SW,224,12.0,32.0,53,0.00,,,0.00,,2013-04-08 20:33:00,
2013-04-08 15:42:00,73.0,55.0,29.79,SW,224,12.0,32.0,53,0.00,,,0.00,,2013-04-08 20:42:00,
2013-04-08 15:52:00,74.0,55.0,29.79,WSW,247,18.0,32.0,51,0.00,,,0.00,,2013-04-08 20:52:00,
2013-04-08 16:02:00,74.0,54.0,29.79,WSW,243,9.0,28.0,50,0.00,,,0.00,,2013-04-08 21:02:00,
2013-04-08 16:12:00,73.0,54.0,29.78,SSW,208,14.0,28.0,52,0.00,,,0.00,,2013-04-08 21:12:00,
2013-04-08 16:22:00,73.0,54.0,29.78,SSW,208,14.0,28.0,52,0.00,,,0.00,,2013-04-08 21:22:00,
2013-04-08 16:32:00,73.0,55.0,29.79,SSW,210,12.0,28.0,53,0.00,,,0.00,,2013-04-08 21:32:00,
2013-04-08 16:43:00,73.0,55.0,29.79,SSW,210,12.0,28.0,53,0.00,,,0.00,,2013-04-08 21:43:00,
2013-04-08 16:52:00,74.0,54.0,29.78,WSW,244,16.0,28.0,50,0.00,,,0.00,,2013-04-08 21:52:00,
2013-04-08 17:03:00,74.0,56.0,29.78,SSW,205,13.0,25.0,53,0.00,,,0.00,,2013-04-08 22:03:00,
2013-04-08 17:13:00,74.0,54.0,29.78,SW,220,14.0,25.0,50,0.00,,,0.00,,2013-04-08 22:13:00,
2013-04-08 17:22:00,74.0,54.0,29.78,SW,220,14.0,25.0,50,0.00,,,0.00,,2013-04-08 22:22:00,
2013-04-08 17:32:00,74.0,54.0,29.78,SW,220,14.0,25.0,50,0.00,,,0.00,,2013-04-08 22:32:00,
2013-04-08 17:42:00,74.0,54.0,29.78,SSW,195,7.0,19.0,50,0.00,,,0.00,,2013-04-08 22:42:00,
2013-04-08 17:52:00,73.0,54.0,29.78,SSW,193,7.0,19.0,52,0.00,,,0.00,,2013-04-08 22:52:00,
2013-04-08 18:02:00,73.0,54.0,29.78,SW,229,10.0,18.0,51,0.00,,,0.00,,2013-04-08 23:02:00,
2013-04-08 18:12:00,73.0,54.0,29.78,SW,229,10.0,18.0,51,0.00,,,0.00,,2013-04-08 23:12:00,
2013-04-08 18:22:00,73.0,54.0,29.78,SW,229,10.0,18.0,51,0.00,,,0.00,,2013-04-08 23:22:00,
2013-04-08 18:32:00,73.0,54.0,29.78,SW,226,5.0,17.0,51,0.00,,,0.00,,2013-04-08 23:32:00,
2013-04-08 18:42:00,73.0,54.0,29.78,WSW,240,2.0,17.0,52,0.00,,,0.00,,2013-04-08 23:42:00,
2013-04-08 18:52:00,73.0,54.0,29.78,WSW,240,2.0,17.0,52,0.00,,,0.00,,2013-04-08 23:52:00,
2013-04-08 19:02:00,73.0,55.0,29.78,SW,217,9.0,16.0,54,0.00,,,0.00,,2013-04-09 00:02:00,
2013-04-08 19:12:00,73.0,55.0,29.78,SW,217,9.0,16.0,54,0.00,,,0.00,,2013-04-09 00:12:00,
2013-04-08 19:22:00,72.0,54.0,29.78,SW,216,5.0,16.0,53,0.00,,,0.00,,2013-04-09 00:22:00,
2013-04-08 19:32:00,71.0,54.0,29.79,SSW,210,7.0,14.0,54,0.00,,,0.00,,2013-04-09 00:32:00,
2013-04-08 19:42:00,71.0,53.0,29.79,SSW,209,8.0,14.0,53,0.00,,,0.00,,2013-04-09 00:42:00,
2013-04-08 19:52:00,71.0,53.0,29.79,SSW,209,8.0,14.0,53,0.00,,,0.00,,2013-04-09 00:52:00,
2013-04-08 20:02:00,70.0,53.0,29.79,SW,220,1.0,12.0,55,0.00,,,0.00,,2013-04-09 01:02:00,
2013-04-08 20:12:00,70.0,54.0,29.80,SSW,213,4.0,12.0,56,0.00,,,0.00,,2013-04-09 01:12:00,
2013-04-08 20:22:00,70.0,54.0,29.80,SSW,213,4.0,12.0,56,0.00,,,0.00,,2013-04-09 01:22:00,
2013-04-08 20:33:00,69.0,53.0,29.81,SW,215,4.0,9.0,57,0.00,,,0.00,,2013-04-09 01:33:00,
2013-04-08 20:42:00,68.0,52.0,29.81,SSW,212,3.0,9.0,57,0.00,,,0.00,,2013-04-09 01:42:00,
2013-04-08 20:52:00,68.0,52.0,29.81,SSW,212,3.0,9.0,57,0.00,,,0.00,,2013-04-09 01:52:00,
2013-04-08 21:02:00,68.0,54.0,29.81,SW,215,4.0,7.0,60,0.00,,,0.00,,2013-04-09 02:02:00,
2013-04-08 21:12:00,68.0,54.0,29.81,SW,215,4.0,7.0,60,0.00,,,0.00,,2013-04-09 02:12:00,
2013-04-08 21:22:00,67.0,53.0,29.82,SSW,208,5.0,7.0,60,0.00,,,0.00,,2013-04-09 02:22:00,
2013-04-08 21:32:00,68.0,54.0,29.83,SW,220,5.0,11.0,61,0.00,,,0.00,,2013-04-09 02:32:00,
2013-04-08 21:42:00,67.0,54.0,29.82,SSW,205,3.0,11.0,63,0.00,,,0.00,,2013-04-09 02:42:00,
2013-04-08 21:52:00,67.0,54.0,29.82,SSW,205,3.0,11.0,63,0.00,,,0.00,,2013-04-09 02:52:00,
2013-04-08 22:02:00,66.0,53.0,29.83,SSW,210,5.0,10.0,62,0.00,,,0.00,,2013-04-09 03:02:00,
2013-04-08 22:12:00,66.0,53.0,29.83,SSW,210,5.0,10.0,62,0.00,,,0.00,,2013-04-09 03:12:00,
2013-04-08 22:21:00,66.0,53.0,29.83,SSW,210,5.0,10.0,63,0.00,,,0.00,,2013-04-09 03:21:00,
2013-04-08 22:33:00,66.0,53.0,29.84,SW,222,5.0,7.0,63,0.00,,,0.00,,2013-04-09 03:33:00,
2013-04-08 22:43:00,66.0,53.0,29.84,SW,222,5.0,7.0,63,0.00,,,0.00,,2013-04-09 03:43:00,
2013-04-08 22:52:00,66.0,53.0,29.84,SW,217,3.0,7.0,63,0.00,,,0.00,,2013-04-09 03:52:00,
2013-04-08 23:03:00,66.0,53.0,29.84,SW,217,3.0,10.0,64,0.00,,,0.00,,2013-04-09 04:03:00,
2013-04-08 23:13:00,66.0,53.0,29.84,SW,217,3.0,10.0,64,0.00,,,0.00,,2013-04-09 04:13:00,
2013-04-08 23:23:00,65.0,54.0,29.84,SW,217,1.0,10.0,67,0.00,,,0.00,,2013-04-09 04:23:00,
2013-04-08 23:32:00,65.0,54.0,29.84,SW,217,1.0,10.0,67,0.00,,,0.00,,2013-04-09 04:32:00,
2013-04-08 23:42:00,65.0,54.0,29.84,SW,217,1.0,10.0,67,0.00,,,0.00,,2013-04-09 04:42:00,
2013-04-08 23:52:00,65.0,54.0,29.84,SW,217,1.0,10.0,67,0.00,,,0.00,,2013-04-09 04:52:00,